Check out our new BloomSky Weather System.

Active alerts


No alerts


Thunder radar  blitzortung!


Rain radar more information rain snow radar


Visit our other weather sites:

Template documentation
and downloads

And another site



Weather Underground History page Text

Daily Summary for September 10, 2017 Units:  English    Metric   Both
« Previous Day
Next Day »
Daily Weekly Monthly Yearly Custom
  High: Low: Average:
Temperature: 85.1 °F 64.9 °F 75.3 °F
Dew Point: 66.2 °F 61.5 °F 63.2 °F
Humidity: 89 % 48 % 68 %
Wind Speed: 14.0 mph 0.0 mph 2.2 mph
Wind Gust: 15.0 mph - -
Wind:- - WSW
Pressure: 30.10 in 30.00 in -
Precipitation: 0.00 in    
Historical Graphs
 
 
Tabular Data for September 10, 2017
Time Temperature Dew Point Pressure Wind Wind Speed Wind Gust Humidity Rainfall Rate (Hourly)
00:02 71.4 °F 62.2 °F 30.06 in North 2.0 mph 6.0 mph 73 % 0.00 in
00:07 71.4 °F 62.2 °F 30.06 in Calm   6.0 mph 73 % 0.00 in
00:12 71.4 °F 62.8 °F 30.06 in NNW 3.0 mph 5.0 mph 74 % 0.00 in
00:17 71.4 °F 62.8 °F 30.06 in NW 1.0 mph 5.0 mph 74 % 0.00 in
00:22 71.2 °F 62.6 °F 30.06 in North 1.0 mph 6.0 mph 74 % 0.00 in
00:27 71.1 °F 62.4 °F 30.06 in WNW 2.0 mph 6.0 mph 74 % 0.00 in
00:32 71.1 °F 62.4 °F 30.06 in NW 2.0 mph 6.0 mph 74 % 0.00 in
00:37 71.1 °F 62.8 °F 30.06 in NNW 1.0 mph 4.0 mph 75 % 0.00 in
00:42 70.9 °F 62.6 °F 30.06 in Calm   5.0 mph 75 % 0.00 in
00:43 70.9 °F 62.6 °F 30.06 in NNW 2.0 mph 5.0 mph 75 % 0.00 in
00:48 70.7 °F 62.8 °F 30.06 in NNW 2.0 mph 5.0 mph 76 % 0.00 in
00:53 70.7 °F 62.8 °F 30.06 in NNE 3.0 mph 5.0 mph 76 % 0.00 in
00:58 70.5 °F 62.6 °F 30.06 in North 2.0 mph 4.0 mph 76 % 0.00 in
01:03 70.3 °F 62.4 °F 30.06 in North 3.0 mph 3.0 mph 76 % 0.00 in
01:08 70.3 °F 62.8 °F 30.06 in NNW 1.0 mph 5.0 mph 77 % 0.00 in
01:13 70.2 °F 62.6 °F 30.06 in NNW 3.0 mph 5.0 mph 77 % 0.00 in
01:18 70.2 °F 62.6 °F 30.06 in WNW 2.0 mph 5.0 mph 77 % 0.00 in
01:23 70.2 °F 62.6 °F 30.06 in NW 2.0 mph 5.0 mph 77 % 0.00 in
01:28 70.2 °F 62.6 °F 30.06 in Calm   5.0 mph 77 % 0.00 in
01:33 70.0 °F 62.4 °F 30.06 in North 3.0 mph 6.0 mph 77 % 0.00 in
01:38 70.0 °F 62.4 °F 30.06 in NW 1.0 mph 6.0 mph 77 % 0.00 in
01:43 70.0 °F 62.4 °F 30.06 in NE 1.0 mph 6.0 mph 77 % 0.00 in
01:48 70.0 °F 62.4 °F 30.06 in Calm   5.0 mph 77 % 0.00 in
01:53 69.8 °F 62.2 °F 30.06 in NNW 1.0 mph 5.0 mph 77 % 0.00 in
01:58 69.8 °F 62.2 °F 30.06 in NNW 2.0 mph 4.0 mph 77 % 0.00 in
02:03 69.8 °F 62.2 °F 30.06 in West 1.0 mph 6.0 mph 77 % 0.00 in
02:08 69.8 °F 62.2 °F 30.05 in NNW 2.0 mph 6.0 mph 77 % 0.00 in
02:13 69.8 °F 62.2 °F 30.06 in NNW 2.0 mph 6.0 mph 77 % 0.00 in
02:18 69.6 °F 62.4 °F 30.06 in North 4.0 mph 5.0 mph 78 % 0.00 in
02:19 69.6 °F 62.4 °F 30.06 in NW 1.0 mph 5.0 mph 78 % 0.00 in
02:24 69.4 °F 62.2 °F 30.06 in NW 1.0 mph 5.0 mph 78 % 0.00 in
02:29 69.4 °F 62.2 °F 30.05 in NW 1.0 mph 5.0 mph 78 % 0.00 in
02:34 69.3 °F 62.1 °F 30.05 in NW 1.0 mph 5.0 mph 78 % 0.00 in
02:39 69.3 °F 62.1 °F 30.06 in NNW 1.0 mph 6.0 mph 78 % 0.00 in
02:44 69.3 °F 62.1 °F 30.06 in Calm   6.0 mph 78 % 0.00 in
02:49 69.3 °F 62.4 °F 30.06 in NW 2.0 mph 6.0 mph 79 % 0.00 in
02:54 69.3 °F 62.1 °F 30.06 in North 1.0 mph 6.0 mph 78 % 0.00 in
02:59 69.3 °F 62.4 °F 30.06 in North 1.0 mph 6.0 mph 79 % 0.00 in
03:04 69.1 °F 62.2 °F 30.06 in NNW 3.0 mph 6.0 mph 79 % 0.00 in
03:09 69.1 °F 62.2 °F 30.06 in North 3.0 mph 5.0 mph 79 % 0.00 in
03:14 68.9 °F 62.1 °F 30.06 in NNW 1.0 mph 7.0 mph 79 % 0.00 in
03:19 68.7 °F 61.9 °F 30.05 in Calm   7.0 mph 79 % 0.00 in
03:25 68.7 °F 62.2 °F 30.05 in NNW 2.0 mph 7.0 mph 80 % 0.00 in
03:30 68.5 °F 62.1 °F 30.05 in ENE 4.0 mph 5.0 mph 80 % 0.00 in
03:35 68.5 °F 62.1 °F 30.05 in ENE 3.0 mph 6.0 mph 80 % 0.00 in
03:40 68.5 °F 62.1 °F 30.04 in WNW 1.0 mph 6.0 mph 80 % 0.00 in
03:45 68.5 °F 62.1 °F 30.05 in NW 2.0 mph 6.0 mph 80 % 0.00 in
03:50 68.7 °F 61.9 °F 30.04 in North 3.0 mph 4.0 mph 79 % 0.00 in
03:55 68.7 °F 61.9 °F 30.04 in Calm   5.0 mph 79 % 0.00 in
04:00 68.7 °F 61.9 °F 30.04 in NE 1.0 mph 5.0 mph 79 % 0.00 in
04:05 68.7 °F 61.9 °F 30.04 in Calm   5.0 mph 79 % 0.00 in
04:10 68.5 °F 62.1 °F 30.04 in NW 3.0 mph 4.0 mph 80 % 0.00 in
04:11 68.7 °F 61.9 °F 30.04 in NNW 2.0 mph 4.0 mph 79 % 0.00 in
04:16 68.5 °F 62.1 °F 30.04 in NNW 2.0 mph 7.0 mph 80 % 0.00 in
04:21 68.5 °F 62.1 °F 30.04 in NNW 2.0 mph 7.0 mph 80 % 0.00 in
04:26 68.4 °F 61.9 °F 30.04 in NW 2.0 mph 7.0 mph 80 % 0.00 in
04:31 68.4 °F 61.9 °F 30.04 in NE 2.0 mph 4.0 mph 80 % 0.00 in
04:36 68.2 °F 62.1 °F 30.04 in Calm   4.0 mph 81 % 0.00 in
04:41 68.2 °F 62.1 °F 30.04 in NW 1.0 mph 4.0 mph 81 % 0.00 in
04:46 68.2 °F 62.1 °F 30.04 in NW 1.0 mph 4.0 mph 81 % 0.00 in
04:51 67.8 °F 61.7 °F 30.05 in North 1.0 mph 4.0 mph 81 % 0.00 in
04:56 67.8 °F 61.7 °F 30.04 in NW 2.0 mph 4.0 mph 81 % 0.00 in
05:01 67.6 °F 61.9 °F 30.04 in NNW 1.0 mph 4.0 mph 82 % 0.00 in
05:06 67.6 °F 61.9 °F 30.04 in NNW 1.0 mph 4.0 mph 82 % 0.00 in
05:11 67.5 °F 61.7 °F 30.04 in Calm   3.0 mph 82 % 0.00 in
05:16 67.5 °F 62.1 °F 30.05 in North 2.0 mph 3.0 mph 83 % 0.00 in
05:21 67.3 °F 61.9 °F 30.05 in North 1.0 mph 3.0 mph 83 % 0.00 in
05:26 67.3 °F 61.9 °F 30.05 in NNW 4.0 mph 4.0 mph 83 % 0.00 in
05:31 67.1 °F 61.7 °F 30.05 in NNW 1.0 mph 5.0 mph 83 % 0.00 in
05:36 66.9 °F 61.9 °F 30.05 in NNW 1.0 mph 5.0 mph 84 % 0.00 in
05:41 66.9 °F 61.9 °F 30.05 in NE 2.0 mph 5.0 mph 84 % 0.00 in
05:46 66.7 °F 61.7 °F 30.05 in Calm   4.0 mph 84 % 0.00 in
05:51 66.7 °F 61.7 °F 30.05 in Calm   4.0 mph 84 % 0.00 in
05:56 66.7 °F 62.1 °F 30.06 in NNW 1.0 mph 6.0 mph 85 % 0.00 in
06:01 66.6 °F 61.9 °F 30.06 in Calm   6.0 mph 85 % 0.00 in
06:06 66.6 °F 61.9 °F 30.06 in NNW 1.0 mph 6.0 mph 85 % 0.00 in
06:10 66.4 °F 61.7 °F 30.06 in North 2.0 mph 4.0 mph 85 % 0.00 in
06:15 66.4 °F 61.7 °F 30.06 in Calm   4.0 mph 85 % 0.00 in
06:20 66.2 °F 61.9 °F 30.06 in North 1.0 mph 4.0 mph 86 % 0.00 in
06:25 66.0 °F 61.7 °F 30.06 in Calm   4.0 mph 86 % 0.00 in
06:30 65.8 °F 61.5 °F 30.06 in NW 1.0 mph 3.0 mph 86 % 0.00 in
06:35 65.8 °F 61.9 °F 30.07 in North 1.0 mph 3.0 mph 87 % 0.00 in
06:40 65.8 °F 61.9 °F 30.07 in NNW 1.0 mph 3.0 mph 87 % 0.00 in
06:45 65.8 °F 61.9 °F 30.07 in NW 1.0 mph 3.0 mph 87 % 0.00 in
06:50 65.7 °F 61.7 °F 30.07 in North 1.0 mph 4.0 mph 87 % 0.00 in
06:55 65.7 °F 61.7 °F 30.07 in NW 1.0 mph 4.0 mph 87 % 0.00 in
07:01 65.5 °F 61.5 °F 30.07 in Calm   4.0 mph 87 % 0.00 in
07:06 65.3 °F 61.7 °F 30.07 in Calm   3.0 mph 88 % 0.00 in
07:10 65.1 °F 61.5 °F 30.07 in Calm   3.0 mph 88 % 0.00 in
07:16 64.9 °F 61.7 °F 30.07 in North 1.0 mph 1.0 mph 89 % 0.00 in
07:21 65.1 °F 61.9 °F 30.08 in North 1.0 mph 3.0 mph 89 % 0.00 in
07:26 65.1 °F 61.9 °F 30.08 in NNW 1.0 mph 3.0 mph 89 % 0.00 in
07:31 65.3 °F 62.1 °F 30.08 in NNW 3.0 mph 5.0 mph 89 % 0.00 in
07:36 65.5 °F 62.2 °F 30.08 in NNE 2.0 mph 5.0 mph 89 % 0.00 in
07:41 65.7 °F 62.2 °F 30.08 in NW 1.0 mph 5.0 mph 89 % 0.00 in
07:46 65.8 °F 62.2 °F 30.08 in North 2.0 mph 5.0 mph 88 % 0.00 in
07:51 66.0 °F 62.4 °F 30.08 in NNE 1.0 mph 4.0 mph 88 % 0.00 in
07:56 66.6 °F 63.0 °F 30.08 in North 1.0 mph 4.0 mph 88 % 0.00 in
08:01 67.1 °F 63.1 °F 30.08 in Calm   3.0 mph 87 % 0.00 in
08:06 67.5 °F 63.1 °F 30.08 in NW 3.0 mph 4.0 mph 86 % 0.00 in
08:11 67.8 °F 63.1 °F 30.08 in NNW 1.0 mph 4.0 mph 85 % 0.00 in
08:16 68.2 °F 63.5 °F 30.08 in NW 1.0 mph 4.0 mph 85 % 0.00 in
08:21 68.5 °F 63.5 °F 30.08 in Calm   7.0 mph 84 % 0.00 in
08:26 69.1 °F 64.0 °F 30.08 in Calm   7.0 mph 84 % 0.00 in
08:31 69.6 °F 63.9 °F 30.08 in NNW 1.0 mph 7.0 mph 82 % 0.00 in
08:36 70.0 °F 63.9 °F 30.08 in North 2.0 mph 7.0 mph 81 % 0.00 in
08:41 70.3 °F 63.9 °F 30.09 in East 1.0 mph 8.0 mph 80 % 0.00 in
08:46 70.7 °F 64.2 °F 30.09 in Calm   8.0 mph 80 % 0.00 in
08:47 70.9 °F 64.4 °F 30.09 in North 4.0 mph 8.0 mph 80 % 0.00 in
08:52 71.2 °F 64.0 °F 30.09 in NW 1.0 mph 8.0 mph 78 % 0.00 in
08:57 71.8 °F 64.2 °F 30.09 in NE 1.0 mph 6.0 mph 77 % 0.00 in
09:02 72.0 °F 64.4 °F 30.09 in NW 2.0 mph 6.0 mph 77 % 0.00 in
09:07 72.3 °F 64.8 °F 30.09 in NNW 2.0 mph 6.0 mph 77 % 0.00 in
09:12 72.7 °F 64.8 °F 30.09 in NW 1.0 mph 6.0 mph 76 % 0.00 in
09:17 73.2 °F 64.8 °F 30.09 in Calm   5.0 mph 75 % 0.00 in
09:22 73.6 °F 65.1 °F 30.09 in NNW 1.0 mph 5.0 mph 75 % 0.00 in
09:27 73.9 °F 65.1 °F 30.09 in North 5.0 mph 5.0 mph 74 % 0.00 in
09:32 73.9 °F 65.1 °F 30.09 in NE 1.0 mph 6.0 mph 74 % 0.00 in
09:38 74.7 °F 65.5 °F 30.09 in East 4.0 mph 6.0 mph 73 % 0.00 in
09:43 74.8 °F 64.8 °F 30.09 in ESE 2.0 mph 7.0 mph 71 % 0.00 in
09:48 74.8 °F 64.8 °F 30.09 in NNW 1.0 mph 7.0 mph 71 % 0.00 in
09:53 74.8 °F 65.1 °F 30.09 in Calm   8.0 mph 72 % 0.00 in
09:58 75.6 °F 65.5 °F 30.09 in North 2.0 mph 8.0 mph 71 % 0.00 in
10:03 75.7 °F 65.3 °F 30.09 in North 1.0 mph 9.0 mph 70 % 0.00 in
10:08 75.9 °F 64.9 °F 30.09 in NW 4.0 mph 9.0 mph 69 % 0.00 in
10:13 76.1 °F 65.7 °F 30.10 in NNE 2.0 mph 9.0 mph 70 % 0.00 in
10:18 76.6 °F 65.7 °F 30.10 in ENE 1.0 mph 7.0 mph 69 % 0.00 in
10:23 77.0 °F 65.1 °F 30.10 in ENE 1.0 mph 7.0 mph 67 % 0.00 in
10:28 77.4 °F 65.1 °F 30.10 in Calm   6.0 mph 66 % 0.00 in
10:34 77.9 °F 65.7 °F 30.10 in NW 2.0 mph 7.0 mph 66 % 0.00 in
10:39 78.3 °F 66.0 °F 30.10 in NW 4.0 mph 9.0 mph 66 % 0.00 in
10:44 78.3 °F 66.0 °F 30.09 in NE 4.0 mph 9.0 mph 66 % 0.00 in
10:49 78.4 °F 65.7 °F 30.10 in North 3.0 mph 9.0 mph 65 % 0.00 in
10:54 78.6 °F 65.8 °F 30.10 in NNW 2.0 mph 9.0 mph 65 % 0.00 in
10:59 78.6 °F 65.5 °F 30.10 in NNW 4.0 mph 8.0 mph 64 % 0.00 in
11:04 79.0 °F 66.2 °F 30.10 in NW 3.0 mph 9.0 mph 65 % 0.00 in
11:09 79.3 °F 65.1 °F 30.09 in NNW 2.0 mph 9.0 mph 62 % 0.00 in
11:14 79.5 °F 65.3 °F 30.09 in NW 1.0 mph 9.0 mph 62 % 0.00 in
11:19 79.7 °F 65.5 °F 30.09 in NNW 4.0 mph 9.0 mph 62 % 0.00 in
11:24 79.9 °F 65.7 °F 30.09 in North 4.0 mph 9.0 mph 62 % 0.00 in
11:29 80.1 °F 65.8 °F 30.09 in NW 3.0 mph 9.0 mph 62 % 0.00 in
11:34 80.4 °F 65.3 °F 30.09 in SW 1.0 mph 9.0 mph 60 % 0.00 in
11:40 81.0 °F 65.3 °F 30.09 in NNW 3.0 mph 10.0 mph 59 % 0.00 in
11:45 81.3 °F 65.7 °F 30.08 in WNW 2.0 mph 10.0 mph 59 % 0.00 in
11:50 81.7 °F 65.5 °F 30.08 in NNW 6.0 mph 10.0 mph 58 % 0.00 in
11:55 82.0 °F 64.8 °F 30.08 in NNE 2.0 mph 7.0 mph 56 % 0.00 in
12:00 82.0 °F 64.8 °F 30.08 in North 5.0 mph 9.0 mph 56 % 0.00 in
12:05 82.0 °F 64.2 °F 30.08 in NE 3.0 mph 9.0 mph 55 % 0.00 in
12:10 82.0 °F 64.2 °F 30.08 in ENE 4.0 mph 9.0 mph 55 % 0.00 in
12:15 82.0 °F 64.2 °F 30.08 in East 7.0 mph 9.0 mph 55 % 0.00 in
12:20 82.4 °F 64.6 °F 30.08 in North 5.0 mph 11.0 mph 55 % 0.00 in
12:25 82.9 °F 64.6 °F 30.07 in WNW 1.0 mph 11.0 mph 54 % 0.00 in
12:30 83.1 °F 64.2 °F 30.07 in WNW 9.0 mph 11.0 mph 53 % 0.00 in
12:35 82.9 °F 64.6 °F 30.07 in NW 6.0 mph 9.0 mph 54 % 0.00 in
12:40 83.1 °F 63.1 °F 30.07 in NW 5.0 mph 9.0 mph 51 % 0.00 in
12:45 82.9 °F 63.0 °F 30.07 in Calm   9.0 mph 51 % 0.00 in
12:50 82.8 °F 63.9 °F 30.07 in NW 3.0 mph 9.0 mph 53 % 0.00 in
12:55 82.9 °F 65.1 °F 30.06 in West 4.0 mph 10.0 mph 55 % 0.00 in
13:00 82.9 °F 63.5 °F 30.06 in NNE 5.0 mph 13.0 mph 52 % 0.00 in
13:05 83.3 °F 64.4 °F 30.06 in North 7.0 mph 13.0 mph 53 % 0.00 in
13:10 83.3 °F 63.3 °F 30.06 in NNW 5.0 mph 13.0 mph 51 % 0.00 in
13:15 83.1 °F 64.2 °F 30.06 in NNW 6.0 mph 11.0 mph 53 % 0.00 in
13:19 83.3 °F 63.3 °F 30.06 in NW 3.0 mph 11.0 mph 51 % 0.00 in
13:24 83.1 °F 63.1 °F 30.06 in ENE 2.0 mph 11.0 mph 51 % 0.00 in
13:29 83.7 °F 63.7 °F 30.06 in WNW 2.0 mph 10.0 mph 51 % 0.00 in
13:34 84.0 °F 63.3 °F 30.05 in ENE 8.0 mph 12.0 mph 50 % 0.00 in
13:39 84.2 °F 64.6 °F 30.05 in NE 1.0 mph 12.0 mph 52 % 0.00 in
13:44 84.2 °F 63.5 °F 30.05 in North 4.0 mph 12.0 mph 50 % 0.00 in
13:49 83.8 °F 62.6 °F 30.05 in NW 7.0 mph 10.0 mph 49 % 0.00 in
13:54 84.2 °F 64.0 °F 30.05 in West 4.0 mph 13.0 mph 51 % 0.00 in
13:59 84.4 °F 64.8 °F 30.04 in ESE 2.0 mph 13.0 mph 52 % 0.00 in
14:04 84.9 °F 63.7 °F 30.04 in WNW 4.0 mph 13.0 mph 49 % 0.00 in
14:09 84.9 °F 63.0 °F 30.04 in WSW 6.0 mph 8.0 mph 48 % 0.00 in
14:14 84.9 °F 64.8 °F 30.04 in SW 2.0 mph 8.0 mph 51 % 0.00 in
14:20 84.6 °F 63.9 °F 30.04 in NW 5.0 mph 8.0 mph 50 % 0.00 in
14:23 84.6 °F 63.9 °F 30.04 in NNW 3.0 mph 9.0 mph 50 % 0.00 in
14:28 84.6 °F 63.9 °F 30.04 in West 7.0 mph 12.0 mph 50 % 0.00 in
14:33 85.1 °F 64.4 °F 30.04 in NNW 4.0 mph 12.0 mph 50 % 0.00 in
14:38 84.7 °F 64.0 °F 30.03 in SW 5.0 mph 12.0 mph 50 % 0.00 in
14:43 84.9 °F 64.2 °F 30.03 in NNW 6.0 mph 12.0 mph 50 % 0.00 in
14:48 84.9 °F 64.2 °F 30.02 in NW 14.0 mph 14.0 mph 50 % 0.00 in
14:53 84.7 °F 64.6 °F 30.03 in WSW 1.0 mph 14.0 mph 51 % 0.00 in
14:58 84.7 °F 64.0 °F 30.02 in NW 6.0 mph 14.0 mph 50 % 0.00 in
15:03 84.0 °F 65.1 °F 30.02 in NW 2.0 mph 14.0 mph 53 % 0.00 in
15:08 84.4 °F 63.7 °F 30.02 in NNW 5.0 mph 13.0 mph 50 % 0.00 in
15:13 84.4 °F 63.7 °F 30.02 in NNW 2.0 mph 13.0 mph 50 % 0.00 in
15:18 84.6 °F 63.9 °F 30.02 in NW 4.0 mph 10.0 mph 50 % 0.00 in
15:23 84.6 °F 65.5 °F 30.02 in West 4.0 mph 12.0 mph 53 % 0.00 in
15:28 84.7 °F 63.5 °F 30.02 in NW 7.0 mph 12.0 mph 49 % 0.00 in
15:33 84.6 °F 64.4 °F 30.01 in East 1.0 mph 12.0 mph 51 % 0.00 in
15:38 84.6 °F 64.4 °F 30.01 in NNE 4.0 mph 12.0 mph 51 % 0.00 in
15:43 84.6 °F 63.9 °F 30.02 in NW 5.0 mph 12.0 mph 50 % 0.00 in
15:48 84.9 °F 64.2 °F 30.01 in NE 6.0 mph 12.0 mph 50 % 0.00 in
15:53 85.1 °F 63.9 °F 30.01 in NW 6.0 mph 12.0 mph 49 % 0.00 in
15:58 84.6 °F 63.9 °F 30.01 in NNW 5.0 mph 13.0 mph 50 % 0.00 in
16:03 84.4 °F 64.2 °F 30.01 in ENE 2.0 mph 13.0 mph 51 % 0.00 in
16:08 84.6 °F 63.3 °F 30.01 in NNW 3.0 mph 13.0 mph 49 % 0.00 in
16:13 84.2 °F 63.5 °F 30.01 in NNE 2.0 mph 13.0 mph 50 % 0.00 in
16:18 84.4 °F 63.7 °F 30.01 in NW 4.0 mph 13.0 mph 50 % 0.00 in
16:23 84.6 °F 64.4 °F 30.01 in WNW 7.0 mph 13.0 mph 51 % 0.00 in
16:28 84.7 °F 63.5 °F 30.00 in NW 4.0 mph 10.0 mph 49 % 0.00 in
16:33 84.6 °F 63.9 °F 30.01 in NW 5.0 mph 9.0 mph 50 % 0.00 in
16:38 84.4 °F 63.7 °F 30.01 in NNW 7.0 mph 9.0 mph 50 % 0.00 in
16:43 84.0 °F 63.3 °F 30.01 in NW 7.0 mph 15.0 mph 50 % 0.00 in
16:48 83.7 °F 63.7 °F 30.01 in NNW 3.0 mph 15.0 mph 51 % 0.00 in
16:53 84.0 °F 63.9 °F 30.01 in NW 2.0 mph 15.0 mph 51 % 0.00 in
16:58 84.0 °F 63.9 °F 30.01 in NW 3.0 mph 12.0 mph 51 % 0.00 in
17:03 83.5 °F 63.5 °F 30.01 in WNW 7.0 mph 12.0 mph 51 % 0.00 in
17:08 83.7 °F 64.2 °F 30.01 in WNW 3.0 mph 12.0 mph 52 % 0.00 in
17:13 84.0 °F 63.3 °F 30.01 in NW 6.0 mph 11.0 mph 50 % 0.00 in
17:19 84.2 °F 63.5 °F 30.01 in NNW 5.0 mph 11.0 mph 50 % 0.00 in
17:24 83.7 °F 63.7 °F 30.01 in North 9.0 mph 9.0 mph 51 % 0.00 in
17:29 83.7 °F 64.2 °F 30.01 in West 4.0 mph 13.0 mph 52 % 0.00 in
17:34 84.4 °F 64.2 °F 30.01 in WNW 4.0 mph 13.0 mph 51 % 0.00 in
17:39 84.2 °F 63.5 °F 30.01 in ESE 5.0 mph 13.0 mph 50 % 0.00 in
17:44 83.7 °F 63.7 °F 30.01 in North 4.0 mph 11.0 mph 51 % 0.00 in
17:49 83.7 °F 64.2 °F 30.01 in Calm   11.0 mph 52 % 0.00 in
17:54 83.8 °F 63.1 °F 30.02 in NW 1.0 mph 11.0 mph 50 % 0.00 in
17:59 83.3 °F 63.3 °F 30.02 in North 2.0 mph 10.0 mph 51 % 0.00 in
18:04 82.8 °F 62.8 °F 30.02 in NW 5.0 mph 10.0 mph 51 % 0.00 in
18:09 82.8 °F 63.3 °F 30.02 in NNW 3.0 mph 12.0 mph 52 % 0.00 in
18:14 82.8 °F 63.3 °F 30.02 in NW 4.0 mph 12.0 mph 52 % 0.00 in
18:19 82.6 °F 63.1 °F 30.02 in NW 6.0 mph 12.0 mph 52 % 0.00 in
18:24 82.4 °F 63.0 °F 30.02 in NNW 1.0 mph 9.0 mph 52 % 0.00 in
18:29 82.2 °F 62.8 °F 30.02 in NNW 3.0 mph 8.0 mph 52 % 0.00 in
18:34 82.2 °F 63.3 °F 30.02 in WSW 1.0 mph 9.0 mph 53 % 0.00 in
18:38 82.0 °F 63.1 °F 30.02 in NW 2.0 mph 9.0 mph 53 % 0.00 in
18:43 81.7 °F 63.0 °F 30.02 in NNW 7.0 mph 12.0 mph 53 % 0.00 in
18:48 81.5 °F 62.8 °F 30.02 in NW 2.0 mph 13.0 mph 53 % 0.00 in
18:53 81.3 °F 62.6 °F 30.02 in North 2.0 mph 13.0 mph 53 % 0.00 in
18:58 81.3 °F 63.1 °F 30.02 in NW 4.0 mph 13.0 mph 54 % 0.00 in
19:03 81.1 °F 63.0 °F 30.03 in NNW 2.0 mph 9.0 mph 54 % 0.00 in
19:08 81.0 °F 63.3 °F 30.03 in West 2.0 mph 9.0 mph 55 % 0.00 in
19:13 80.8 °F 63.1 °F 30.03 in NW 2.0 mph 6.0 mph 55 % 0.00 in
19:18 80.2 °F 63.1 °F 30.03 in NNW 1.0 mph 6.0 mph 56 % 0.00 in
19:23 79.9 °F 63.3 °F 30.03 in NW 2.0 mph 5.0 mph 57 % 0.00 in
19:28 79.3 °F 62.8 °F 30.03 in NNW 6.0 mph 6.0 mph 57 % 0.00 in
19:33 79.0 °F 63.0 °F 30.03 in North 3.0 mph 8.0 mph 58 % 0.00 in
19:38 78.6 °F 62.6 °F 30.02 in NNW 2.0 mph 8.0 mph 58 % 0.00 in
19:43 78.3 °F 62.8 °F 30.03 in North 2.0 mph 8.0 mph 59 % 0.00 in
19:46 78.1 °F 62.6 °F 30.03 in NNE 1.0 mph 5.0 mph 59 % 0.00 in
19:51 77.9 °F 62.4 °F 30.03 in NNW 3.0 mph 5.0 mph 59 % 0.00 in
19:56 77.5 °F 62.6 °F 30.03 in NNW 2.0 mph 5.0 mph 60 % 0.00 in
19:58 77.5 °F 62.6 °F 30.03 in NW 3.0 mph 5.0 mph 60 % 0.00 in
20:03 77.4 °F 62.8 °F 30.03 in East 2.0 mph 5.0 mph 61 % 0.00 in
20:08 77.2 °F 62.6 °F 30.03 in NNE 2.0 mph 4.0 mph 61 % 0.00 in
20:13 76.8 °F 62.8 °F 30.03 in NNW 1.0 mph 3.0 mph 62 % 0.00 in
20:18 76.6 °F 62.6 °F 30.03 in Calm   3.0 mph 62 % 0.00 in
20:23 76.3 °F 62.8 °F 30.03 in NNW 1.0 mph 3.0 mph 63 % 0.00 in
20:28 76.1 °F 63.0 °F 30.03 in North 1.0 mph 2.0 mph 64 % 0.00 in
20:33 75.7 °F 62.8 °F 30.03 in Calm   2.0 mph 64 % 0.00 in
20:38 75.6 °F 63.0 °F 30.04 in Calm   2.0 mph 65 % 0.00 in
20:43 75.4 °F 62.8 °F 30.04 in Calm   2.0 mph 65 % 0.00 in
20:48 75.0 °F 63.0 °F 30.04 in Calm   2.0 mph 66 % 0.00 in
20:53 74.8 °F 62.8 °F 30.04 in Calm   2.0 mph 66 % 0.00 in
20:58 74.7 °F 63.0 °F 30.04 in Calm   2.0 mph 67 % 0.00 in
21:03 74.5 °F 62.8 °F 30.04 in Calm   2.0 mph 67 % 0.00 in
21:08 74.1 °F 63.0 °F 30.04 in Calm   2.0 mph 68 % 0.00 in
21:13 73.9 °F 62.8 °F 30.04 in Calm   2.0 mph 68 % 0.00 in
21:18 73.8 °F 63.0 °F 30.04 in Calm   2.0 mph 69 % 0.00 in
21:23 73.8 °F 63.0 °F 30.04 in Calm   1.0 mph 69 % 0.00 in
21:28 73.8 °F 63.0 °F 30.04 in Calm   2.0 mph 69 % 0.00 in
21:33 73.6 °F 62.8 °F 30.04 in Calm   2.0 mph 69 % 0.00 in
21:38 73.6 °F 62.8 °F 30.05 in Calm   2.0 mph 69 % 0.00 in
21:43 73.6 °F 62.8 °F 30.05 in Calm   3.0 mph 69 % 0.00 in
21:48 73.6 °F 62.8 °F 30.05 in Calm   3.0 mph 69 % 0.00 in
21:53 73.6 °F 62.8 °F 30.05 in Calm   3.0 mph 69 % 0.00 in
21:58 73.8 °F 63.0 °F 30.05 in Calm   3.0 mph 69 % 0.00 in
22:00 73.8 °F 63.0 °F 30.05 in North 1.0 mph 4.0 mph 69 % 0.00 in
22:05 73.8 °F 63.0 °F 30.05 in NNE 1.0 mph 4.0 mph 69 % 0.00 in
22:10 73.8 °F 63.0 °F 30.05 in NNW 1.0 mph 4.0 mph 69 % 0.00 in
22:16 73.6 °F 62.8 °F 30.05 in Calm   5.0 mph 69 % 0.00 in
22:19 73.6 °F 62.8 °F 30.05 in West 1.0 mph 5.0 mph 69 % 0.00 in
22:21 73.6 °F 62.8 °F 30.05 in NNW 1.0 mph 5.0 mph 69 % 0.00 in
22:22 73.6 °F 62.8 °F 30.05 in Calm   5.0 mph 69 % 0.00 in
22:27 73.6 °F 62.8 °F 30.04 in NNE 1.0 mph 5.0 mph 69 % 0.00 in
22:29 73.4 °F 62.6 °F 30.04 in NNW 1.0 mph 5.0 mph 69 % 0.00 in
22:31 73.4 °F 62.6 °F 30.04 in Calm   3.0 mph 69 % 0.00 in
22:35 73.2 °F 62.4 °F 30.04 in North 1.0 mph 3.0 mph 69 % 0.00 in
22:45 73.0 °F 62.6 °F 30.04 in Calm   4.0 mph 70 % 0.00 in
22:50 73.0 °F 62.6 °F 30.04 in Calm   4.0 mph 70 % 0.00 in
22:55 72.9 °F 62.4 °F 30.04 in Calm   4.0 mph 70 % 0.00 in
23:00 72.9 °F 63.0 °F 30.04 in North 3.0 mph 3.0 mph 71 % 0.00 in
23:05 72.7 °F 62.8 °F 30.05 in North 1.0 mph 3.0 mph 71 % 0.00 in
23:10 72.7 °F 62.8 °F 30.04 in Calm   3.0 mph 71 % 0.00 in
23:15 72.5 °F 62.6 °F 30.05 in Calm   3.0 mph 71 % 0.00 in
23:20 72.3 °F 62.8 °F 30.05 in North 1.0 mph 3.0 mph 72 % 0.00 in
23:25 72.3 °F 62.8 °F 30.05 in NW 1.0 mph 3.0 mph 72 % 0.00 in
23:30 72.1 °F 62.6 °F 30.05 in Calm   4.0 mph 72 % 0.00 in
23:35 72.1 °F 62.6 °F 30.04 in Calm   4.0 mph 72 % 0.00 in
23:40 72.1 °F 63.0 °F 30.04 in Calm   4.0 mph 73 % 0.00 in
23:45 71.8 °F 62.6 °F 30.04 in Calm   3.0 mph 73 % 0.00 in
23:50 71.6 °F 63.0 °F 30.04 in NNW 1.0 mph 3.0 mph 74 % 0.00 in
23:55 71.4 °F 62.8 °F 30.04 in Calm   1.0 mph 74 % 0.00 in
Spring, Texas: Villages of Bridgestone
Compliments of Weather Underground - 2.75 mb

Script developed by  Jim McMurry - jmcmurry@mwt.net Adapted for the template by  Wim van der Kuil - Leuven-Template.eu

You find our weather info also at:

UK Metoffice

WeatherCloud

Weather Underground

Mid-South Weather Network

AWEKAS

Citizen Weather Observer Program (CWOP)

HAMweather, WeatherForYou, PWS Weather

Equipment we use:

Weather-station
Davis Vantage Vue

Weather-program
Meteohub

Weather-server
Debian 7.9 x86 (Guest)

Provider
DreamHost

Davis Vantage Vue

Meteohub

Debian 7.9 x86 (Guest)

DreamHost